• In Austria
  • List of Countries
  • For 7 days
  • Water Temperature
  • Satellite Maps
  • Weather Map
  • News
  • Weather Widgets
  • user-avatar
    Login

    Hourly Weather Salta

    Today, 19 July, Thursday

    Time Temperature Precipitation Wind Pressure Humidity
    00:00 +16°C° 0 mm 1 mps 647 mmHg 67%
    01:00 +16°C° 0 mm 2 mps 648 mmHg 66%
    02:00 +16°C° 0 mm 2 mps 648 mmHg 65%
    03:00 +16°C° 0 mm 2 mps 647 mmHg 66%
    04:00 +15°C° 0 mm 2 mps 647 mmHg 67%
    05:00 +15°C° 0 mm 2 mps 647 mmHg 68%
    06:00 +15°C° 0 mm 2 mps 647 mmHg 67%
    07:00 +16°C° 0 mm 2 mps 647 mmHg 67%
    08:00 +16°C° 0 mm 2 mps 647 mmHg 66%
    09:00 +17°C° 0 mm 3 mps 648 mmHg 62%
    10:00 +19°C° 0 mm 4 mps 648 mmHg 57%
    11:00 +20°C° 0 mm 5 mps 648 mmHg 52%
    12:00 +20°C° 0.2 mm 5 mps 648 mmHg 51%
    13:00 +21°C° 0.2 mm 5 mps 648 mmHg 49%
    14:00 +21°C° 0.2 mm 6 mps 648 mmHg 48%
    15:00 +19°C° 0.1 mm 6 mps 648 mmHg 50%
    16:00 +17°C° 0.1 mm 5 mps 648 mmHg 51%
    17:00 +16°C° 0.1 mm 5 mps 648 mmHg 53%
    18:00 +15°C° 0 mm 5 mps 648 mmHg 55%
    19:00 +13°C° 0 mm 4 mps 648 mmHg 58%
    20:00 +12°C° 0 mm 4 mps 648 mmHg 60%
    21:00 +12°C° 0 mm 4 mps 648 mmHg 60%
    22:00 +11°C° 0 mm 4 mps 649 mmHg 60%
    23:00 +11°C° 0 mm 4 mps 649 mmHg 60%

    Tomorrow, 20 July, Friday

    Time Temperature Precipitation Wind Pressure Humidity
    00:00 +10°C° 0 mm 3 mps 649 mmHg 61%
    01:00 +9°C° 0 mm 3 mps 649 mmHg 61%
    02:00 +9°C° 0 mm 3 mps 649 mmHg 61%
    03:00 +9°C° 0 mm 3 mps 649 mmHg 59%
    04:00 +8°C° 0 mm 3 mps 649 mmHg 57%
    05:00 +8°C° 0 mm 3 mps 649 mmHg 54%
    06:00 +8°C° 0 mm 3 mps 650 mmHg 52%
    07:00 +7°C° 0 mm 3 mps 651 mmHg 49%
    08:00 +7°C° 0 mm 3 mps 652 mmHg 47%
    09:00 +9°C° 0 mm 3 mps 653 mmHg 41%
    10:00 +11°C° 0 mm 4 mps 653 mmHg 36%
    11:00 +12°C° 0 mm 4 mps 654 mmHg 30%
    12:00 +13°C° 0 mm 4 mps 654 mmHg 28%
    13:00 +14°C° 0 mm 4 mps 654 mmHg 27%
    14:00 +16°C° 0 mm 3 mps 653 mmHg 25%
    15:00 +14°C° 0 mm 3 mps 653 mmHg 27%
    16:00 +14°C° 0 mm 2 mps 653 mmHg 29%
    17:00 +13°C° 0 mm 2 mps 653 mmHg 30%
    18:00 +12°C° 0 mm 2 mps 653 mmHg 35%
    19:00 +10°C° 0 mm 1 mps 653 mmHg 40%
    20:00 +8°C° 0 mm 1 mps 653 mmHg 45%
    21:00 +8°C° 0 mm 1 mps 653 mmHg 45%
    22:00 +7°C° 0 mm 1 mps 654 mmHg 45%
    23:00 +7°C° 0 mm 1 mps 654 mmHg 45%

    Day after tomorrow, 21 July, Saturday

    Time Temperature Precipitation Wind Pressure Humidity
    00:00 +7°C° 0 mm 1 mps 653 mmHg 45%
    01:00 +7°C° 0 mm 1 mps 653 mmHg 45%
    02:00 +7°C° 0 mm 1 mps 653 mmHg 45%
    03:00 +6°C° 0 mm 1 mps 652 mmHg 46%
    04:00 +6°C° 0 mm 1 mps 652 mmHg 47%
    05:00 +6°C° 0 mm 1 mps 652 mmHg 48%
    06:00 +7°C° 0 mm 1 mps 652 mmHg 46%
    07:00 +8°C° 0 mm 1 mps 653 mmHg 44%
    08:00 +9°C° 0 mm 1 mps 653 mmHg 42%
    09:00 +12°C° 0 mm 2 mps 653 mmHg 36%
    10:00 +14°C° 0 mm 2 mps 654 mmHg 31%
    11:00 +17°C° 0 mm 3 mps 654 mmHg 25%
    12:00 +18°C° 0 mm 3 mps 653 mmHg 24%
    13:00 +19°C° 0 mm 3 mps 653 mmHg 23%
    14:00 +19°C° 0 mm 4 mps 652 mmHg 23%
    15:00 +18°C° 0 mm 3 mps 651 mmHg 26%
    16:00 +17°C° 0 mm 3 mps 650 mmHg 30%
    17:00 +16°C° 0 mm 2 mps 649 mmHg 34%
    18:00 +14°C° 0 mm 2 mps 649 mmHg 39%
    19:00 +12°C° 0 mm 2 mps 649 mmHg 43%
    20:00 +10°C° 0 mm 2 mps 649 mmHg 48%
    21:00 +10°C° 0 mm 2 mps 649 mmHg 48%
    22:00 +9°C° 0 mm 2 mps 649 mmHg 47%
    23:00 +9°C° 0 mm 2 mps 649 mmHg 47%

    22 July, Sunday

    Time Temperature Precipitation Wind Pressure Humidity
    00:00 +9°C° 0 mm 2 mps 648 mmHg 46%
    01:00 +9°C° 0 mm 2 mps 648 mmHg 45%
    02:00 +9°C° 0 mm 2 mps 647 mmHg 44%
    03:00 +10°C° 0 mm 2 mps 647 mmHg 42%
    04:00 +10°C° 0 mm 2 mps 646 mmHg 40%
    05:00 +10°C° 0 mm 2 mps 646 mmHg 39%
    06:00 +12°C° 0 mm 2 mps 647 mmHg 36%
    07:00 +13°C° 0 mm 2 mps 647 mmHg 33%
    08:00 +14°C° 0 mm 2 mps 648 mmHg 30%
    09:00 +18°C° 0 mm 2 mps 649 mmHg 25%
    10:00 +23°C° 0 mm 2 mps 650 mmHg 19%
    11:00 +26°C° 0 mm 2 mps 651 mmHg 14%
    12:00 +27°C° 0 mm 2 mps 651 mmHg 13%
    13:00 +28°C° 0 mm 2 mps 651 mmHg 13%
    14:00 +29°C° 0 mm 3 mps 650 mmHg 12%
    15:00 +27°C° 0 mm 3 mps 650 mmHg 15%
    16:00 +26°C° 0 mm 3 mps 650 mmHg 18%
    17:00 +24°C° 0 mm 3 mps 650 mmHg 21%
    18:00 +20°C° 0 mm 2 mps 650 mmHg 28%
    19:00 +18°C° 0 mm 2 mps 651 mmHg 34%
    20:00 +15°C° 0 mm 1 mps 651 mmHg 40%
    21:00 +14°C° 0 mm 1 mps 651 mmHg 41%
    22:00 +13°C° 0 mm 2 mps 651 mmHg 42%
    23:00 +13°C° 0 mm 2 mps 651 mmHg 42%

    23 July, Monday

    Time Temperature Precipitation Wind Pressure Humidity
    00:00 +12°C° 0 mm 2 mps 652 mmHg 42%
    01:00 +12°C° 0 mm 2 mps 652 mmHg 41%
    02:00 +12°C° 0 mm 2 mps 652 mmHg 41%
    03:00 +10°C° 0 mm 2 mps 652 mmHg 42%
    04:00 +10°C° 0 mm 2 mps 652 mmHg 44%
    05:00 +9°C° 0 mm 2 mps 652 mmHg 45%
    06:00 +9°C° 0 mm 2 mps 653 mmHg 46%
    07:00 +9°C° 0 mm 2 mps 654 mmHg 47%
    08:00 +9°C° 0 mm 2 mps 655 mmHg 48%
    09:00 +10°C° 0 mm 2 mps 656 mmHg 44%
    10:00 +12°C° 0 mm 3 mps 656 mmHg 41%
    11:00 +13°C° 0 mm 3 mps 657 mmHg 38%
    12:00 +14°C° 0 mm 3 mps 656 mmHg 36%
    13:00 +14°C° 0 mm 4 mps 656 mmHg 35%
    14:00 +14°C° 0 mm 4 mps 655 mmHg 34%
    15:00 +13°C° 0 mm 3 mps 655 mmHg 35%
    16:00 +12°C° 0 mm 3 mps 655 mmHg 37%
    17:00 +11°C° 0 mm 3 mps 654 mmHg 38%
    18:00 +10°C° 0 mm 2 mps 655 mmHg 41%
    19:00 +8°C° 0 mm 2 mps 655 mmHg 44%
    20:00 +7°C° 0 mm 2 mps 656 mmHg 47%
    21:00 +7°C° 0 mm 1 mps 656 mmHg 47%
    22:00 +7°C° 0 mm 1 mps 656 mmHg 47%
    23:00 +6°C° 0 mm 1 mps 656 mmHg 47%

    24 July, Tuesday

    Time Temperature Precipitation Wind Pressure Humidity
    00:00 +6°C° 0 mm 1 mps 656 mmHg 46%
    01:00 +6°C° 0 mm 1 mps 655 mmHg 46%
    02:00 +5°C° 0 mm 1 mps 655 mmHg 45%
    03:00 +5°C° 0 mm 1 mps 655 mmHg 45%
    04:00 +5°C° 0 mm 1 mps 655 mmHg 45%
    05:00 +4°C° 0 mm 1 mps 654 mmHg 45%
    06:00 +5°C° 0 mm 1 mps 655 mmHg 43%
    07:00 +6°C° 0 mm 1 mps 655 mmHg 42%
    08:00 +6°C° 0 mm 1 mps 656 mmHg 40%
    09:00 +9°C° 0 mm 1 mps 656 mmHg 35%
    10:00 +10°C° 0 mm 2 mps 657 mmHg 30%
    11:00 +14°C° 0 mm 2 mps 657 mmHg 25%
    12:00 +15°C° 0 mm 2 mps 656 mmHg 24%
    13:00 +16°C° 0 mm 2 mps 656 mmHg 23%
    14:00 +17°C° 0 mm 2 mps 655 mmHg 22%
    15:00 +16°C° 0 mm 2 mps 655 mmHg 24%
    16:00 +15°C° 0 mm 2 mps 654 mmHg 27%
    17:00 +14°C° 0 mm 2 mps 654 mmHg 29%
    18:00 +12°C° 0 mm 1 mps 654 mmHg 33%
    19:00 +11°C° 0 mm 1 mps 654 mmHg 38%
    20:00 +9°C° 0 mm 1 mps 654 mmHg 43%
    21:00 +8°C° 0 mm 1 mps 654 mmHg 44%
    22:00 +8°C° 0 mm 1 mps 654 mmHg 46%
    23:00 +8°C° 0 mm 1 mps 654 mmHg 47%
    Show more